Regional Weather Roundup
Issued by NWS

Home | Current Version | Previous Version | Graphics & Text | Print | Product List | Glossary On
Versions: 1 2 3 4 5 6 7 8 9 10 11 12 13 14 15 16 17 18 19 20 21 22 23 24 25 26 27 28 29 30 31 32 33 34 35 36 37 38 39 40 41 42 43 44 45 46 47 48 49 50
000
ASUS43 KMPX 271510
RWRMN
WEATHER ROUNDUP FOR MINNESOTA
NATIONAL WEATHER SERVICE TWIN CITIES/CHANHASSEN MN
1000 AM CDT SUN JUL 27 2014


NOTE: "FAIR" INDICATES FEW OR NO CLOUDS BELOW 12,000 FEET WITH NO
SIGNIFICANT WEATHER AND/OR OBSTRUCTIONS TO VISIBILITY. N/A MEANS
CURRENT SKY AND/OR WEATHER CONDITIONS ARE NOT AVAILABLE.

MNZ060>063-068>070-271600-
   Twin Cities Metro

CITY           SKY/WX    TMP DP  RH WIND       PRES   REMARKS
TWIN CITIES    CLOUDY    67  57  70 NW22G28   29.85R
ST PAUL        CLOUDY    67  56  67 NW20G28   29.84R
CRYSTAL        CLOUDY    68  55  63 NW17G25   29.85R
LAKEVILLE      PTSUNNY   66  55  68 NW18G26   29.85R
EDEN PRAIRIE   PTSUNNY   69  57  65 NW14G26   29.86R
SOUTH ST PAUL  CLOUDY    68  55  63 NW13G20   29.84R
LAKE ELMO      CLOUDY    68  59  73 NW13G21   29.85R
$$
MNZ001>005-007-008-013>017-022>024-027-028-271600-
   Northwest Minnesota

CITY           SKY/WX    TMP DP  RH WIND       PRES   REMARKS
BEMIDJI        CLOUDY    63  59  88 N12       29.95R
HALLOCK        CLOUDY    59  55  88 N16       30.06R
ROSEAU         CLOUDY    61  55  82 N10       30.03R
WARROAD        CLOUDY    61  55  82 N10G17    30.02R
THIEF RVR FALL CLOUDY    61  57  88 NW14      30.02R
CROOKSTON      CLOUDY    63  57  82 N21       30.04R
FOSSTON        CLOUDY    59  57  94 NW16G23   30.00R
DETROIT LAKES  DRIZZLE   59  59 100 N20G29    30.00R
MOORHEAD       CLOUDY    64  61  88 N18G26    30.03R
PARK RAPIDS    CLOUDY    66  58  75 N18G25    29.93R
$$
MNZ006-009>011-018-025>026-271600-
   North Central Minnesota

CITY           SKY/WX    TMP DP  RH WIND       PRES   REMARKS
BAUDETTE       CLOUDY    63  58  83 N12       29.99R
FLAG ISLAND    CLOUDY    61  55  82 NE18      30.01R
INTL FALLS     CLOUDY    61  56  83 NE15G23   29.94R
WASKISH        CLOUDY    63  61  94 N9        29.95R
BIG FORK       PTSUNNY   63  57  82 N9        29.90R
LONGVILLE      CLOUDY    64  61  88 N8G17     29.90R
GRAND RAPIDS   PTSUNNY   63  57  82 N14       29.88R
CRANE LAKE     CLOUDY    59  57  94 N8G16     29.92R
ORR            CLOUDY    61  55  82 N6        29.88R
COOK           CLOUDY    61  59  94 N6        29.89R
$$
MNZ012-019>021-037-271600-
   Northeast Minnesota

CITY           SKY/WX    TMP DP  RH WIND       PRES   REMARKS
DULUTH         CLOUDY    64  59  83 N8        29.82R
ELY            LGT RAIN  61  57  88 NE9G18    29.85R
HIBBING        CLOUDY    66  58  75 N13G22    29.87R
EVELETH        CLOUDY    63  57  82 N10G22    29.86R
DULUTH HARBOR  CLOUDY    55  54  94 E9        29.84R
TWO HARBORS    CLOUDY    64  57  77 E7        29.80R
SILVER BAY     CLOUDY    57  57 100 E6        29.82R FOG
GRAND MARAIS     N/A     59  57  93 NE12G21   29.83R
G MARAIS ARPRT DRIZZLE   55  54  94 NE12      29.86R
$$
MNZ029>031-032-039>041-046>048-054>057-064-271600-
   West Central Minnesota

CITY           SKY/WX    TMP DP  RH WIND       PRES   REMARKS
FERGUS FALLS   CLOUDY    61  57  88 N23G33    30.00R
WHEATON        CLOUDY    61  55  82 NW14G25   30.04R
MORRIS         MOSUNNY   63  57  82 NW25G31   29.99R
ALEXANDRIA     PTSUNNY   66  58  75 NW24G35   29.97R
ELBOW LAKE     CLOUDY    60  58  92 NW17G30   29.99R
WADENA         PTSUNNY   64  57  77 NW13G18   29.94R
GLENWOOD       MOSUNNY   66  59  77 NW20      29.96R
APPLETON       CLOUDY    66  55  68 NW21G29   30.00R
BENSON         CLOUDY    66  57  72 N25G31    29.97R
ORTONVILLE     CLOUDY    63  55  77 NW15G24   30.02R
MADISON        MOSUNNY   66  57  72 NW17G23   30.01S
WILLMAR        FAIR      66  55  68 NW18G25   29.97R
$$
MNZ033>034-036-042>043-049>051-058-059-271600-
   Central Minnesota

CITY           SKY/WX    TMP DP  RH WIND       PRES   REMARKS
ST CLOUD       CLOUDY    70  56  61 NW17G28   29.88R
SAUK CENTRE    CLOUDY    66  57  71 NW14G26   29.93R
PAYNESVILLE    CLOUDY    65  57  76 W16G23    29.93R
AITKIN         CLOUDY    66  59  77 NW8       29.87R
PINE RIVER     CLOUDY    64  59  82 N10G18    29.93R
BRAINERD       CLOUDY    65  57  75 NW17      29.90R
STAPLES        CLOUDY    66  57  72 NW20G25   29.92R
LONG PRAIRIE   CLOUDY    64  57  77 NW15G22   29.93R
LITTLE FALLS   PTSUNNY   66  55  68 NW8G20    29.89R
LITCHFIELD     CLOUDY    68  61  77 NW15G25   29.92R
BUFFALO        PTSUNNY   68  56  64 NW13G21   29.89R
MAPLE LAKE     PTSUNNY   69  60  72 NW14      29.90R
$$
MNZ037-044-045-052-053-271600-
   East Central Minnesota

CITY           SKY/WX    TMP DP  RH WIND       PRES   REMARKS
PRINCETON      PTSUNNY   70  57  64 NW14G22   29.86R
MORA           PTSUNNY   64  59  82 NW14G21   29.86R
CAMBRIDGE      MOSUNNY   70  55  60 NW14G24   29.83R
RUSH CITY      PTSUNNY   67  56  69 NW12G25   29.83R
MOOSE LAKE     CLOUDY    63  59  88 N7        29.82R
HINCKLEY       CLOUDY    64  59  82 NW15      29.83R
CLOQUET        CLOUDY    63  57  82 NW12      29.83R
MCGREGOR       CLOUDY    63  59  88 NW12G20   29.87R
$$
MNZ071>073-080-081-089-090-097-098-271600-
   Southwest Minnesota

CITY           SKY/WX    TMP DP  RH WIND       PRES   REMARKS
MONTEVIDEO     CLOUDY    64  57  77 N20       29.99R
GRANITE FALLS  CLOUDY    64  57  79 NW22G29   30.00R
CANBY          CLOUDY    65  55  70 NW18G28   30.04R
MARSHALL       CLOUDY    64  54  68 NW25      30.00R
REDWOOD FALLS  CLOUDY    66  56  70 NW16G29   29.96R
OLIVIA         CLOUDY    64  55  72 NW21      29.95R
PIPESTONE      CLOUDY    64  55  72 N16G25    30.05R
WINDOM         CLOUDY    64  55  72 NW21      29.99R
WORTHINGTON    CLOUDY    64  55  72 NW18G26   30.03R
JACKSON        CLOUDY    64  55  72 NW18G25   30.00R
TRACY          CLOUDY    64  56  76 NW17G25   30.01R
SLAYTON        CLOUDY    64  55  74 NW20G26   30.03R
$$
MNZ065>067-074>077-082>085-091>093-271600-
   South Central Minnesota

CITY           SKY/WX    TMP DP  RH WIND       PRES   REMARKS
MANKATO        CLOUDY    66  55  68 NW18G25   29.91R
NEW ULM        PTSUNNY   66  57  72 NW22G29   29.94R
ST JAMES       MOSUNNY   68  57  68 W17G29    29.96R
FAIRMONT       PTSUNNY   68  54  60 NW21G30   29.95R
GLENCOE        PTSUNNY   68  56  64 NW17G31   29.90R
FARIBAULT      CLOUDY    70  54  56 W14G20    29.88R
OWATONNA       PTSUNNY   66  57  72 NW16G31   29.89R
WASECA         CLOUDY    63  52  67 NW18G24   29.92R
ALBERT LEA     CLOUDY    66  55  68 NW14G24   29.90R
$$
MNZ078>079-086>088-094>096-271600-
   Southeast Minnesota

CITY           SKY/WX    TMP DP  RH WIND       PRES   REMARKS
ROCHESTER      PTSUNNY   67  56  67 NW17G30   29.87S
RED WING       CLOUDY    70  55  60 NW15      29.82R
STANTON        CLOUDY    69  57  65 NW18G28   29.85R
DODGE CENTER   PTSUNNY   66  57  72 NW22      29.87R
WINONA         PTSUNNY   70  55  60 NW15G24   29.81S
AUSTIN         PTSUNNY   66  55  68 NW18G29   29.89R
PRESTON        PTSUNNY   66  61  83 NW21G29   29.87R
$$
ABBREVIATIONS USED IN REMARKS
   TC - TEMPERATURES IN CELSIUS
  WCI - WIND CHILL INDEX
   HX - HEAT INDEX
  VSB - VISIBILITY
$$



USA.gov is the U.S. government's official web portal to all federal, state and local government web resources and services.